Year,Month,Day,Hour,Minute,Value (Times are PST for temperature in C)
2010,07,07,00,00,13.30
2010,07,07,00,01,13.30
2010,07,07,00,02,13.30
2010,07,07,00,03,13.30
2010,07,07,00,04,13.30
2010,07,07,00,05,13.30
2010,07,07,00,06,13.30
2010,07,07,00,07,13.30
2010,07,07,00,08,13.30
2010,07,07,00,09,13.20
2010,07,07,00,10,13.20
2010,07,07,00,11,13.20
2010,07,07,00,12,13.20
2010,07,07,00,13,13.10
2010,07,07,00,14,13.10
2010,07,07,00,15,13.10
2010,07,07,00,16,13.10
2010,07,07,00,17,13.00
2010,07,07,00,18,13.00
2010,07,07,00,19,13.00
2010,07,07,00,20,13.00
2010,07,07,00,21,12.90
2010,07,07,00,22,12.90
2010,07,07,00,23,12.80
2010,07,07,00,24,12.80
2010,07,07,00,25,12.80
2010,07,07,00,26,12.80
2010,07,07,00,27,12.80
2010,07,07,00,28,12.80
2010,07,07,00,29,12.80
2010,07,07,00,30,12.80
2010,07,07,00,31,12.80
2010,07,07,00,32,12.80
2010,07,07,00,33,12.70
2010,07,07,00,34,12.70
2010,07,07,00,35,12.70
2010,07,07,00,36,12.70
2010,07,07,00,37,12.70
2010,07,07,00,38,12.60
2010,07,07,00,39,12.60
2010,07,07,00,40,12.60
2010,07,07,00,41,12.60
2010,07,07,00,42,12.60
2010,07,07,00,43,12.50
2010,07,07,00,44,12.50
2010,07,07,00,45,12.50
2010,07,07,00,46,12.50
2010,07,07,00,47,12.50
2010,07,07,00,48,12.50
2010,07,07,00,49,12.50
2010,07,07,00,50,12.40
2010,07,07,00,51,12.40
2010,07,07,00,52,12.40
2010,07,07,00,53,12.40
2010,07,07,00,54,12.40
2010,07,07,00,55,12.40
2010,07,07,00,56,12.40
2010,07,07,00,57,12.40
2010,07,07,00,58,12.40
2010,07,07,00,59,12.40
2010,07,07,01,00,12.30
2010,07,07,01,01,12.30
2010,07,07,01,02,12.30
2010,07,07,01,03,12.30
2010,07,07,01,04,12.30
2010,07,07,01,05,12.30
2010,07,07,01,06,12.30
2010,07,07,01,07,12.30
2010,07,07,01,08,12.30
2010,07,07,01,09,12.30
2010,07,07,01,10,12.30
2010,07,07,01,11,12.20
2010,07,07,01,12,12.20
2010,07,07,01,13,12.20
2010,07,07,01,14,12.20
2010,07,07,01,15,12.20
2010,07,07,01,16,12.10
2010,07,07,01,17,12.10
2010,07,07,01,18,12.10
2010,07,07,01,19,12.10
2010,07,07,01,20,12.10
2010,07,07,01,21,12.10
2010,07,07,01,22,12.10
2010,07,07,01,23,12.10
2010,07,07,01,24,12.10
2010,07,07,01,25,12.10
2010,07,07,01,26,12.10
2010,07,07,01,27,12.10
2010,07,07,01,28,12.10
2010,07,07,01,29,12.10
2010,07,07,01,30,12.10
2010,07,07,01,31,12.10
2010,07,07,01,32,12.00
2010,07,07,01,33,12.00
2010,07,07,01,34,12.00
2010,07,07,01,35,12.00
2010,07,07,01,36,12.00
2010,07,07,01,37,12.00
2010,07,07,01,38,12.00
2010,07,07,01,39,12.00
2010,07,07,01,40,11.90
2010,07,07,01,41,11.90
2010,07,07,01,42,11.90
2010,07,07,01,43,11.90
2010,07,07,01,44,11.90
2010,07,07,01,45,11.80
2010,07,07,01,46,11.80
2010,07,07,01,47,11.80
2010,07,07,01,48,11.80
2010,07,07,01,49,11.80
2010,07,07,01,50,11.80
2010,07,07,01,51,11.80
2010,07,07,01,52,11.80
2010,07,07,01,53,11.80
2010,07,07,01,54,11.80
2010,07,07,01,55,11.80
2010,07,07,01,56,11.80
2010,07,07,01,57,11.80
2010,07,07,01,58,11.80
2010,07,07,01,59,11.80
2010,07,07,02,00,11.80
2010,07,07,02,01,11.80
2010,07,07,02,02,11.80
2010,07,07,02,03,11.80
2010,07,07,02,04,11.70
2010,07,07,02,05,11.70
2010,07,07,02,06,11.70
2010,07,07,02,07,11.70
2010,07,07,02,08,11.60
2010,07,07,02,09,11.60
2010,07,07,02,10,11.60
2010,07,07,02,11,11.60
2010,07,07,02,12,11.60
2010,07,07,02,13,11.60
2010,07,07,02,14,11.60
2010,07,07,02,15,11.60
2010,07,07,02,16,11.60
2010,07,07,02,17,11.50
2010,07,07,02,18,11.40
2010,07,07,02,19,11.40
2010,07,07,02,20,11.40
2010,07,07,02,21,11.40
2010,07,07,02,22,11.40
2010,07,07,02,23,11.40
2010,07,07,02,24,11.40
2010,07,07,02,25,11.40
2010,07,07,02,26,11.40
2010,07,07,02,27,11.40
2010,07,07,02,28,11.40
2010,07,07,02,29,11.40
2010,07,07,02,30,11.40
2010,07,07,02,31,11.30
2010,07,07,02,32,11.30
2010,07,07,02,33,11.30
2010,07,07,02,34,11.30
2010,07,07,02,35,11.30
2010,07,07,02,36,11.30
2010,07,07,02,37,11.30
2010,07,07,02,38,11.30
2010,07,07,02,39,11.30
2010,07,07,02,40,11.30
2010,07,07,02,41,11.30
2010,07,07,02,42,11.30
2010,07,07,02,43,11.30
2010,07,07,02,44,11.30
2010,07,07,02,45,11.30
2010,07,07,02,46,11.20
2010,07,07,02,47,11.20
2010,07,07,02,48,11.20
2010,07,07,02,49,11.20
2010,07,07,02,50,11.20
2010,07,07,02,51,11.20
2010,07,07,02,52,11.20
2010,07,07,02,53,11.20
2010,07,07,02,54,11.20
2010,07,07,02,55,11.10
2010,07,07,02,56,11.10
2010,07,07,02,57,11.10
2010,07,07,02,58,11.10
2010,07,07,02,59,11.10
2010,07,07,03,00,11.10
2010,07,07,03,01,11.10
2010,07,07,03,02,11.10
2010,07,07,03,03,11.10
2010,07,07,03,04,11.10
2010,07,07,03,05,11.10
2010,07,07,03,06,11.10
2010,07,07,03,07,11.10
2010,07,07,03,08,11.10
2010,07,07,03,09,11.10
2010,07,07,03,10,11.10
2010,07,07,03,11,11.10
2010,07,07,03,12,11.10
2010,07,07,03,13,11.10
2010,07,07,03,14,11.10
2010,07,07,03,15,11.00
2010,07,07,03,16,10.90
2010,07,07,03,17,10.90
2010,07,07,03,18,10.90
2010,07,07,03,19,10.90
2010,07,07,03,20,10.90
2010,07,07,03,21,10.90
2010,07,07,03,22,10.90
2010,07,07,03,23,10.90
2010,07,07,03,24,10.90
2010,07,07,03,25,10.90
2010,07,07,03,26,10.90
2010,07,07,03,27,10.90
2010,07,07,03,28,10.90
2010,07,07,03,29,10.90
2010,07,07,03,30,10.90
2010,07,07,03,31,10.90
2010,07,07,03,32,10.90
2010,07,07,03,33,10.90
2010,07,07,03,34,10.90
2010,07,07,03,35,10.90
2010,07,07,03,36,10.90
2010,07,07,03,37,10.90
2010,07,07,03,38,10.90
2010,07,07,03,39,10.90
2010,07,07,03,40,10.90
2010,07,07,03,41,10.80
2010,07,07,03,42,10.80
2010,07,07,03,43,10.80
2010,07,07,03,44,10.80
2010,07,07,03,45,10.80
2010,07,07,03,46,10.80
2010,07,07,03,47,10.80
2010,07,07,03,48,10.80
2010,07,07,03,49,10.70
2010,07,07,03,50,10.70
2010,07,07,03,51,10.70
2010,07,07,03,52,10.70
2010,07,07,03,53,10.70
2010,07,07,03,54,10.70
2010,07,07,03,55,10.70
2010,07,07,03,56,10.70
2010,07,07,03,57,10.70
2010,07,07,03,58,10.70
2010,07,07,03,59,10.70
2010,07,07,04,00,10.70
2010,07,07,04,01,10.70
2010,07,07,04,02,10.70
2010,07,07,04,03,10.60
2010,07,07,04,04,10.60
2010,07,07,04,05,10.60
2010,07,07,04,06,10.60
2010,07,07,04,07,10.60
2010,07,07,04,08,10.60
2010,07,07,04,09,10.60
2010,07,07,04,10,10.60
2010,07,07,04,11,10.60
2010,07,07,04,12,10.60
2010,07,07,04,13,10.60
2010,07,07,04,14,10.60
2010,07,07,04,15,10.60
2010,07,07,04,16,10.60
2010,07,07,04,17,10.60
2010,07,07,04,18,10.60
2010,07,07,04,19,10.60
2010,07,07,04,20,10.60
2010,07,07,04,21,10.60
2010,07,07,04,22,10.60
2010,07,07,04,23,10.60
2010,07,07,04,24,10.60
2010,07,07,04,25,10.60
2010,07,07,04,26,10.60
2010,07,07,04,27,10.60
2010,07,07,04,28,10.60
2010,07,07,04,29,10.60
2010,07,07,04,30,10.60
2010,07,07,04,31,10.60
2010,07,07,04,32,10.60
2010,07,07,04,33,10.60
2010,07,07,04,34,10.50
2010,07,07,04,35,10.50
2010,07,07,04,36,10.60
2010,07,07,04,37,10.60
2010,07,07,04,38,10.60
2010,07,07,04,39,10.50
2010,07,07,04,40,10.40
2010,07,07,04,41,10.40
2010,07,07,04,42,10.40
2010,07,07,04,43,10.40
2010,07,07,04,44,10.40
2010,07,07,04,45,10.40
2010,07,07,04,46,10.40
2010,07,07,04,47,10.40
2010,07,07,04,48,10.40
2010,07,07,04,49,10.30
2010,07,07,04,50,10.30
2010,07,07,04,51,10.30
2010,07,07,04,52,10.30
2010,07,07,04,53,10.30
2010,07,07,04,54,10.20
2010,07,07,04,55,10.20
2010,07,07,04,56,10.20
2010,07,07,04,57,10.20
2010,07,07,04,58,10.20
2010,07,07,04,59,10.20
2010,07,07,05,00,10.20
2010,07,07,05,01,10.20
2010,07,07,05,02,10.20
2010,07,07,05,03,10.20
2010,07,07,05,04,10.20
2010,07,07,05,05,10.20
2010,07,07,05,06,10.20
2010,07,07,05,07,10.20
2010,07,07,05,08,10.20
2010,07,07,05,09,10.20
2010,07,07,05,10,10.20
2010,07,07,05,11,10.20
2010,07,07,05,12,10.20
2010,07,07,05,13,10.20
2010,07,07,05,14,10.20
2010,07,07,05,15,10.20
2010,07,07,05,16,10.20
2010,07,07,05,17,10.20
2010,07,07,05,18,10.20
2010,07,07,05,19,10.20
2010,07,07,05,20,10.20
2010,07,07,05,21,10.20
2010,07,07,05,22,10.20
2010,07,07,05,23,10.20
2010,07,07,05,24,10.20
2010,07,07,05,25,10.20
2010,07,07,05,26,10.20
2010,07,07,05,27,10.20
2010,07,07,05,28,10.20
2010,07,07,05,29,10.20
2010,07,07,05,30,10.20
2010,07,07,05,31,10.20
2010,07,07,05,32,10.20
2010,07,07,05,33,10.20
2010,07,07,05,34,10.20
2010,07,07,05,35,10.20
2010,07,07,05,36,10.20
2010,07,07,05,37,10.20
2010,07,07,05,38,10.10
2010,07,07,05,39,10.10
2010,07,07,05,40,10.10
2010,07,07,05,41,10.10
2010,07,07,05,42,10.10
2010,07,07,05,43,10.10
2010,07,07,05,44,10.10
2010,07,07,05,45,10.10
2010,07,07,05,46,10.10
2010,07,07,05,47,10.10
2010,07,07,05,48,10.10
2010,07,07,05,49,10.10
2010,07,07,05,50,10.10
2010,07,07,05,51,10.20
2010,07,07,05,52,10.20
2010,07,07,05,53,10.20
2010,07,07,05,54,10.20
2010,07,07,05,55,10.20
2010,07,07,05,56,10.30
2010,07,07,05,57,10.30
2010,07,07,05,58,10.30
2010,07,07,05,59,10.30
2010,07,07,06,00,10.30
2010,07,07,06,01,10.40
2010,07,07,06,02,10.40
2010,07,07,06,03,10.40
2010,07,07,06,04,10.40
2010,07,07,06,05,10.40
2010,07,07,06,06,10.40
2010,07,07,06,07,10.40
2010,07,07,06,08,10.40
2010,07,07,06,09,10.40
2010,07,07,06,10,10.40
2010,07,07,06,11,10.40
2010,07,07,06,12,10.40
2010,07,07,06,13,10.40
2010,07,07,06,14,10.40
2010,07,07,06,15,10.40
2010,07,07,06,16,10.40
2010,07,07,06,17,10.40
2010,07,07,06,18,10.40
2010,07,07,06,19,10.40
2010,07,07,06,20,10.40
2010,07,07,06,21,10.40
2010,07,07,06,22,10.50
2010,07,07,06,23,10.60
2010,07,07,06,24,10.60
2010,07,07,06,25,10.60
2010,07,07,06,26,10.70
2010,07,07,06,27,10.80
2010,07,07,06,28,10.90
2010,07,07,06,29,11.00
2010,07,07,06,30,11.10
2010,07,07,06,31,11.30
2010,07,07,06,32,11.40
2010,07,07,06,33,11.60
2010,07,07,06,34,11.70
2010,07,07,06,35,11.80
2010,07,07,06,36,11.90
2010,07,07,06,37,12.00
2010,07,07,06,38,12.10
2010,07,07,06,39,12.20
2010,07,07,06,40,12.30
2010,07,07,06,41,12.50
2010,07,07,06,42,12.50
2010,07,07,06,43,12.60
2010,07,07,06,44,12.80
2010,07,07,06,45,12.90
2010,07,07,06,46,13.00
2010,07,07,06,47,13.10
2010,07,07,06,48,13.20
2010,07,07,06,49,13.30
2010,07,07,06,50,13.40
2010,07,07,06,51,13.50
2010,07,07,06,52,13.60
2010,07,07,06,53,13.70
2010,07,07,06,54,13.90
2010,07,07,06,55,14.00
2010,07,07,06,56,14.10
2010,07,07,06,57,14.20
2010,07,07,06,58,14.30
2010,07,07,06,59,14.40
2010,07,07,07,00,14.50
2010,07,07,07,01,14.60
2010,07,07,07,02,14.70
2010,07,07,07,03,14.70
2010,07,07,07,04,14.80
2010,07,07,07,05,14.80
2010,07,07,07,06,14.80
2010,07,07,07,07,14.90
2010,07,07,07,08,14.90
2010,07,07,07,09,15.00
2010,07,07,07,10,15.10
2010,07,07,07,11,15.20
2010,07,07,07,12,15.30
2010,07,07,07,13,15.30
2010,07,07,07,14,15.40
2010,07,07,07,15,15.50
2010,07,07,07,16,15.60
2010,07,07,07,17,15.80
2010,07,07,07,18,15.80
2010,07,07,07,19,16.00
2010,07,07,07,20,16.10
2010,07,07,07,21,16.10
2010,07,07,07,22,16.30
2010,07,07,07,23,16.40
2010,07,07,07,24,16.60
2010,07,07,07,25,16.70
2010,07,07,07,26,16.90
2010,07,07,07,27,17.10
2010,07,07,07,28,17.30
2010,07,07,07,29,17.40
2010,07,07,07,30,17.50
2010,07,07,07,31,17.50
2010,07,07,07,32,17.70
2010,07,07,07,33,17.80
2010,07,07,07,34,17.80
2010,07,07,07,35,17.90
2010,07,07,07,36,18.00
2010,07,07,07,37,18.10
2010,07,07,07,38,18.20
2010,07,07,07,39,18.20
2010,07,07,07,40,18.30
2010,07,07,07,41,18.40
2010,07,07,07,42,18.50
2010,07,07,07,43,18.60
2010,07,07,07,44,18.70
2010,07,07,07,45,18.80
2010,07,07,07,46,18.90
2010,07,07,07,47,18.90
2010,07,07,07,48,18.90
2010,07,07,07,49,19.00
2010,07,07,07,50,19.10
2010,07,07,07,51,19.10
2010,07,07,07,52,19.20
2010,07,07,07,53,19.30
2010,07,07,07,54,19.40
2010,07,07,07,55,19.40
2010,07,07,07,56,19.50
2010,07,07,07,57,19.60
2010,07,07,07,58,19.70
2010,07,07,07,59,19.80
2010,07,07,08,00,19.90
2010,07,07,08,01,19.90
2010,07,07,08,02,20.00
2010,07,07,08,03,20.10
2010,07,07,08,04,20.20
2010,07,07,08,05,20.30
2010,07,07,08,06,20.40
2010,07,07,08,07,20.50
2010,07,07,08,08,20.50
2010,07,07,08,09,20.60
2010,07,07,08,10,20.70
2010,07,07,08,11,20.80
2010,07,07,08,12,20.80
2010,07,07,08,13,21.00
2010,07,07,08,14,21.00
2010,07,07,08,15,21.00
2010,07,07,08,16,21.10
2010,07,07,08,17,21.20
2010,07,07,08,18,21.20
2010,07,07,08,19,21.30
2010,07,07,08,20,21.30
2010,07,07,08,21,21.40
2010,07,07,08,22,21.50
2010,07,07,08,23,21.60
2010,07,07,08,24,21.60
2010,07,07,08,25,21.70
2010,07,07,08,26,21.70
2010,07,07,08,27,21.80
2010,07,07,08,28,21.80
2010,07,07,08,29,21.90
2010,07,07,08,30,21.90
2010,07,07,08,31,22.00
2010,07,07,08,32,22.00
2010,07,07,08,33,22.10
2010,07,07,08,34,22.10
2010,07,07,08,35,22.10
2010,07,07,08,36,22.20
2010,07,07,08,37,22.20
2010,07,07,08,38,22.30
2010,07,07,08,39,22.30
2010,07,07,08,40,22.30
2010,07,07,08,41,22.30
2010,07,07,08,42,22.40
2010,07,07,08,43,22.40
2010,07,07,08,44,22.40
2010,07,07,08,45,22.40
2010,07,07,08,46,22.40
2010,07,07,08,47,22.40
2010,07,07,08,48,22.50
2010,07,07,08,49,22.60
2010,07,07,08,50,22.60
2010,07,07,08,51,22.70
2010,07,07,08,52,22.70
2010,07,07,08,53,22.80
2010,07,07,08,54,22.90
2010,07,07,08,55,22.90
2010,07,07,08,56,22.90
2010,07,07,08,57,23.10
2010,07,07,08,58,23.20
2010,07,07,08,59,23.30
2010,07,07,09,00,23.30
2010,07,07,09,01,23.40
2010,07,07,09,02,23.50
2010,07,07,09,03,23.60
2010,07,07,09,04,23.70
2010,07,07,09,05,23.70
2010,07,07,09,06,23.70
2010,07,07,09,07,23.70
2010,07,07,09,08,23.70
2010,07,07,09,09,23.70
2010,07,07,09,10,23.70
2010,07,07,09,11,23.60
2010,07,07,09,12,23.60
2010,07,07,09,13,23.60
2010,07,07,09,14,23.60
2010,07,07,09,15,23.60
2010,07,07,09,16,23.60
2010,07,07,09,17,23.60
2010,07,07,09,18,23.60
2010,07,07,09,19,23.70
2010,07,07,09,20,23.70
2010,07,07,09,21,23.70
2010,07,07,09,22,23.80
2010,07,07,09,23,23.90
2010,07,07,09,24,24.00
2010,07,07,09,25,24.10
2010,07,07,09,26,24.10
2010,07,07,09,27,24.10
2010,07,07,09,28,24.20
2010,07,07,09,29,24.20
2010,07,07,09,30,24.30
2010,07,07,09,31,24.30
2010,07,07,09,32,24.40
2010,07,07,09,33,24.40
2010,07,07,09,34,24.40
2010,07,07,09,35,24.40
2010,07,07,09,36,24.50
2010,07,07,09,37,24.50
2010,07,07,09,38,24.50
2010,07,07,09,39,24.60
2010,07,07,09,40,24.60
2010,07,07,09,41,24.70
2010,07,07,09,42,24.70
2010,07,07,09,43,24.70
2010,07,07,09,44,24.60
2010,07,07,09,45,24.60
2010,07,07,09,46,24.60
2010,07,07,09,47,24.60
2010,07,07,09,48,24.60
2010,07,07,09,49,24.60
2010,07,07,09,50,24.60
2010,07,07,09,51,24.70
2010,07,07,09,52,24.80
2010,07,07,09,53,24.90
2010,07,07,09,54,25.00
2010,07,07,09,55,25.00
2010,07,07,09,56,24.90
2010,07,07,09,57,24.90
2010,07,07,09,58,25.00
2010,07,07,09,59,25.20
2010,07,07,10,00,25.30
2010,07,07,10,01,25.40
2010,07,07,10,02,25.40
2010,07,07,10,03,25.50
2010,07,07,10,04,25.70
2010,07,07,10,05,25.80
2010,07,07,10,06,25.80
2010,07,07,10,07,25.90
2010,07,07,10,08,25.90
2010,07,07,10,09,25.90
2010,07,07,10,10,26.00
2010,07,07,10,11,26.00
2010,07,07,10,12,26.00
2010,07,07,10,13,26.00
2010,07,07,10,14,25.90
2010,07,07,10,15,25.90
2010,07,07,10,16,25.90
2010,07,07,10,17,25.90
2010,07,07,10,18,25.90
2010,07,07,10,19,26.00
2010,07,07,10,20,26.00
2010,07,07,10,21,26.00
2010,07,07,10,22,26.00
2010,07,07,10,23,26.00
2010,07,07,10,24,26.00
2010,07,07,10,25,26.00
2010,07,07,10,26,26.00
2010,07,07,10,27,26.10
2010,07,07,10,28,26.20
2010,07,07,10,29,26.20
2010,07,07,10,30,26.20
2010,07,07,10,31,26.20
2010,07,07,10,32,26.30
2010,07,07,10,33,26.40
2010,07,07,10,34,26.50
2010,07,07,10,35,26.60
2010,07,07,10,36,26.60
2010,07,07,10,37,26.70
2010,07,07,10,38,26.70
2010,07,07,10,39,26.70
2010,07,07,10,40,26.70
2010,07,07,10,41,26.60
2010,07,07,10,42,26.50
2010,07,07,10,43,26.40
2010,07,07,10,44,26.20
2010,07,07,10,45,26.10
2010,07,07,10,46,26.00
2010,07,07,10,47,26.00
2010,07,07,10,48,25.90
2010,07,07,10,49,26.00
2010,07,07,10,50,26.00
2010,07,07,10,51,26.20
2010,07,07,10,52,26.30
2010,07,07,10,53,26.40
2010,07,07,10,54,26.60
2010,07,07,10,55,26.70
2010,07,07,10,56,26.70
2010,07,07,10,57,26.80
2010,07,07,10,58,26.80
2010,07,07,10,59,26.90
2010,07,07,11,00,26.90
2010,07,07,11,01,27.00
2010,07,07,11,02,27.10
2010,07,07,11,03,27.20
2010,07,07,11,04,27.20
2010,07,07,11,05,27.30
2010,07,07,11,06,27.30
2010,07,07,11,07,27.30
2010,07,07,11,08,27.40
2010,07,07,11,09,27.50
2010,07,07,11,10,27.60
2010,07,07,11,11,27.70
2010,07,07,11,12,27.90
2010,07,07,11,13,28.00
2010,07,07,11,14,28.00
2010,07,07,11,15,28.10
2010,07,07,11,16,28.20
2010,07,07,11,17,28.20
2010,07,07,11,18,28.20
2010,07,07,11,19,28.20
2010,07,07,11,20,28.20
2010,07,07,11,21,28.20
2010,07,07,11,22,28.20
2010,07,07,11,23,28.20
2010,07,07,11,24,28.30
2010,07,07,11,25,28.30
2010,07,07,11,26,28.30
2010,07,07,11,27,28.30
2010,07,07,11,28,28.20
2010,07,07,11,29,28.30
2010,07,07,11,30,28.30
2010,07,07,11,31,28.40
2010,07,07,11,32,28.50
2010,07,07,11,33,28.60
2010,07,07,11,34,28.70
2010,07,07,11,35,28.80
2010,07,07,11,36,28.80
2010,07,07,11,37,28.80
2010,07,07,11,38,28.80
2010,07,07,11,39,28.80
2010,07,07,11,40,28.80
2010,07,07,11,41,28.80
2010,07,07,11,42,28.80
2010,07,07,11,43,28.80
2010,07,07,11,44,28.70
2010,07,07,11,45,28.60
2010,07,07,11,46,28.50
2010,07,07,11,47,28.40
2010,07,07,11,48,28.40
2010,07,07,11,49,28.40
2010,07,07,11,50,28.50
2010,07,07,11,51,28.60
2010,07,07,11,52,28.70
2010,07,07,11,53,28.80
2010,07,07,11,54,28.90
2010,07,07,11,55,28.90
2010,07,07,11,56,28.90
2010,07,07,11,57,29.00
2010,07,07,11,58,29.00
2010,07,07,11,59,28.90
2010,07,07,12,00,28.90
2010,07,07,12,01,28.90
2010,07,07,12,02,28.90
2010,07,07,12,03,28.90
2010,07,07,12,04,28.90
2010,07,07,12,05,28.80
2010,07,07,12,06,28.70
2010,07,07,12,07,28.70
2010,07,07,12,08,28.60
2010,07,07,12,09,28.50
2010,07,07,12,10,28.30
2010,07,07,12,11,28.20
2010,07,07,12,12,28.20
2010,07,07,12,13,28.10
2010,07,07,12,14,28.10
2010,07,07,12,15,28.20
2010,07,07,12,16,28.20
2010,07,07,12,17,28.30
2010,07,07,12,18,28.30
2010,07,07,12,19,28.30
2010,07,07,12,20,28.30
2010,07,07,12,21,28.40
2010,07,07,12,22,28.40
2010,07,07,12,23,28.50
2010,07,07,12,24,28.60
2010,07,07,12,25,28.60
2010,07,07,12,26,28.70
2010,07,07,12,27,28.70
2010,07,07,12,28,28.80
2010,07,07,12,29,28.90
2010,07,07,12,30,28.90
2010,07,07,12,31,28.90
2010,07,07,12,32,28.90
2010,07,07,12,33,28.90
2010,07,07,12,34,28.90
2010,07,07,12,35,28.90
2010,07,07,12,36,28.90
2010,07,07,12,37,28.90
2010,07,07,12,38,28.90
2010,07,07,12,39,28.90
2010,07,07,12,40,28.90
2010,07,07,12,41,28.80
2010,07,07,12,42,28.60
2010,07,07,12,43,28.60
2010,07,07,12,44,28.60
2010,07,07,12,45,28.60
2010,07,07,12,46,28.50
2010,07,07,12,47,28.40
2010,07,07,12,48,28.40
2010,07,07,12,49,28.30
2010,07,07,12,50,28.40
2010,07,07,12,51,28.40
2010,07,07,12,52,28.40
2010,07,07,12,53,28.40
2010,07,07,12,54,28.50
2010,07,07,12,55,28.60
2010,07,07,12,56,28.70
2010,07,07,12,57,28.80
2010,07,07,12,58,28.80
2010,07,07,12,59,28.80
2010,07,07,13,00,28.90
2010,07,07,13,01,28.90
2010,07,07,13,02,28.80
2010,07,07,13,03,28.80
2010,07,07,13,04,28.80
2010,07,07,13,05,28.80
2010,07,07,13,06,28.80
2010,07,07,13,07,28.90
2010,07,07,13,08,28.90
2010,07,07,13,09,28.90
2010,07,07,13,10,28.90
2010,07,07,13,11,28.90
2010,07,07,13,12,28.90
2010,07,07,13,13,29.00
2010,07,07,13,14,29.10
2010,07,07,13,15,29.10
2010,07,07,13,16,29.00
2010,07,07,13,17,28.90
2010,07,07,13,18,28.90
2010,07,07,13,19,28.90
2010,07,07,13,20,28.90
2010,07,07,13,21,28.90
2010,07,07,13,22,28.90
2010,07,07,13,23,29.00
2010,07,07,13,24,29.00
2010,07,07,13,25,28.90
2010,07,07,13,26,28.90
2010,07,07,13,27,28.90
2010,07,07,13,28,28.80
2010,07,07,13,29,28.80
2010,07,07,13,30,28.70
2010,07,07,13,31,28.60
2010,07,07,13,32,28.60
2010,07,07,13,33,28.60
2010,07,07,13,34,28.50
2010,07,07,13,35,28.50
2010,07,07,13,36,28.60
2010,07,07,13,37,28.60
2010,07,07,13,38,28.80
2010,07,07,13,39,28.80
2010,07,07,13,40,28.90
2010,07,07,13,41,28.90
2010,07,07,13,42,28.90
2010,07,07,13,43,28.80
2010,07,07,13,44,28.80
2010,07,07,13,45,28.70
2010,07,07,13,46,28.70
2010,07,07,13,47,28.70
2010,07,07,13,48,28.70
2010,07,07,13,49,28.60
2010,07,07,13,50,28.60
2010,07,07,13,51,28.60
2010,07,07,13,52,28.60
2010,07,07,13,53,28.70
2010,07,07,13,54,28.70
2010,07,07,13,55,28.80
2010,07,07,13,56,28.90
2010,07,07,13,57,28.90
2010,07,07,13,58,28.90
2010,07,07,13,59,28.90
2010,07,07,14,00,28.90
2010,07,07,14,01,28.90
2010,07,07,14,02,28.90
2010,07,07,14,03,28.90
2010,07,07,14,04,29.00
2010,07,07,14,05,29.10
2010,07,07,14,06,29.20
2010,07,07,14,07,29.20
2010,07,07,14,08,29.20
2010,07,07,14,09,29.30
2010,07,07,14,10,29.30
2010,07,07,14,11,29.30
2010,07,07,14,12,29.30
2010,07,07,14,13,29.30
2010,07,07,14,14,29.30
2010,07,07,14,15,29.30
2010,07,07,14,16,29.30
2010,07,07,14,17,29.30
2010,07,07,14,18,29.30
2010,07,07,14,19,29.40
2010,07,07,14,20,29.40
2010,07,07,14,21,29.40
2010,07,07,14,22,29.40
2010,07,07,14,23,29.40
2010,07,07,14,24,29.50
2010,07,07,14,25,29.50
2010,07,07,14,26,29.60
2010,07,07,14,27,29.60
2010,07,07,14,28,29.70
2010,07,07,14,29,29.70
2010,07,07,14,30,29.80
2010,07,07,14,31,29.80
2010,07,07,14,32,29.80
2010,07,07,14,33,29.80
2010,07,07,14,34,29.80
2010,07,07,14,35,29.80
2010,07,07,14,36,29.80
2010,07,07,14,37,29.80
2010,07,07,14,38,29.80
2010,07,07,14,39,29.80
2010,07,07,14,40,29.80
2010,07,07,14,41,29.80
2010,07,07,14,42,29.80
2010,07,07,14,43,29.80
2010,07,07,14,44,29.90
2010,07,07,14,45,29.90
2010,07,07,14,46,29.90
2010,07,07,14,47,30.00
2010,07,07,14,48,30.10
2010,07,07,14,49,30.20
2010,07,07,14,50,30.20
2010,07,07,14,51,30.20
2010,07,07,14,52,30.20
2010,07,07,14,53,30.30
2010,07,07,14,54,30.30
2010,07,07,14,55,30.40
2010,07,07,14,56,30.40
2010,07,07,14,57,30.40
2010,07,07,14,58,30.60
2010,07,07,14,59,30.60
2010,07,07,15,00,30.60
2010,07,07,15,01,30.60
2010,07,07,15,02,30.70
2010,07,07,15,03,30.70
2010,07,07,15,04,30.70
2010,07,07,15,05,30.60
2010,07,07,15,06,30.60
2010,07,07,15,07,30.60
2010,07,07,15,08,30.40
2010,07,07,15,09,30.40
2010,07,07,15,10,30.40
2010,07,07,15,11,30.40
2010,07,07,15,12,30.40
2010,07,07,15,13,30.30
2010,07,07,15,14,30.30
2010,07,07,15,15,30.30
2010,07,07,15,16,30.20
2010,07,07,15,17,30.20
2010,07,07,15,18,30.20
2010,07,07,15,19,30.30
2010,07,07,15,20,30.30
2010,07,07,15,21,30.20
2010,07,07,15,22,30.20
2010,07,07,15,23,30.30
2010,07,07,15,24,30.30
2010,07,07,15,25,30.40
2010,07,07,15,26,30.50
2010,07,07,15,27,30.60
2010,07,07,15,28,30.60
2010,07,07,15,29,30.60
2010,07,07,15,30,30.60
2010,07,07,15,31,30.70
2010,07,07,15,32,30.70
2010,07,07,15,33,30.70
2010,07,07,15,34,30.80
2010,07,07,15,35,30.80
2010,07,07,15,36,30.90
2010,07,07,15,37,30.90
2010,07,07,15,38,31.00
2010,07,07,15,39,31.00
2010,07,07,15,40,31.00
2010,07,07,15,41,31.00
2010,07,07,15,42,31.00
2010,07,07,15,43,31.00
2010,07,07,15,44,30.90
2010,07,07,15,45,30.90
2010,07,07,15,46,30.90
2010,07,07,15,47,31.00
2010,07,07,15,48,31.00
2010,07,07,15,49,31.10
2010,07,07,15,50,31.10
2010,07,07,15,51,31.10
2010,07,07,15,52,31.20
2010,07,07,15,53,31.20
2010,07,07,15,54,31.10
2010,07,07,15,55,31.10
2010,07,07,15,56,31.00
2010,07,07,15,57,31.00
2010,07,07,15,58,30.90
2010,07,07,15,59,30.90
2010,07,07,16,00,31.00
2010,07,07,16,01,31.10
2010,07,07,16,02,31.10
2010,07,07,16,03,31.10
2010,07,07,16,04,31.10
2010,07,07,16,05,31.10
2010,07,07,16,06,31.10
2010,07,07,16,07,31.00
2010,07,07,16,08,30.90
2010,07,07,16,09,30.90
2010,07,07,16,10,30.90
2010,07,07,16,11,30.90
2010,07,07,16,12,30.90
2010,07,07,16,13,30.90
2010,07,07,16,14,30.90
2010,07,07,16,15,30.90
2010,07,07,16,16,31.00
2010,07,07,16,17,31.00
2010,07,07,16,18,31.10
2010,07,07,16,19,31.10
2010,07,07,16,20,31.20
2010,07,07,16,21,31.20
2010,07,07,16,22,31.20
2010,07,07,16,23,31.20
2010,07,07,16,24,31.20
2010,07,07,16,25,31.20
2010,07,07,16,26,31.10
2010,07,07,16,27,31.10
2010,07,07,16,28,31.10
2010,07,07,16,29,31.10
2010,07,07,16,30,31.10
2010,07,07,16,31,31.10
2010,07,07,16,32,31.10
2010,07,07,16,33,31.00
2010,07,07,16,34,31.00
2010,07,07,16,35,30.90
2010,07,07,16,36,30.90
2010,07,07,16,37,30.90
2010,07,07,16,38,31.00
2010,07,07,16,39,31.00
2010,07,07,16,40,31.00
2010,07,07,16,41,31.00
2010,07,07,16,42,31.00
2010,07,07,16,43,31.00
2010,07,07,16,44,30.90
2010,07,07,16,45,30.90
2010,07,07,16,46,30.80
2010,07,07,16,47,30.80
2010,07,07,16,48,30.80
2010,07,07,16,49,30.80
2010,07,07,16,50,30.80
2010,07,07,16,51,30.80
2010,07,07,16,52,30.80
2010,07,07,16,53,30.90
2010,07,07,16,54,31.00
2010,07,07,16,55,31.10
2010,07,07,16,56,31.10
2010,07,07,16,57,31.10
2010,07,07,16,58,31.10
2010,07,07,16,59,31.20
2010,07,07,17,00,31.20
2010,07,07,17,01,31.20
2010,07,07,17,02,31.20
2010,07,07,17,03,31.20
2010,07,07,17,04,31.10
2010,07,07,17,05,31.10
2010,07,07,17,06,31.10
2010,07,07,17,07,31.10
2010,07,07,17,08,31.20
2010,07,07,17,09,31.20
2010,07,07,17,10,31.30
2010,07,07,17,11,31.30
2010,07,07,17,12,31.40
2010,07,07,17,13,31.40
2010,07,07,17,14,31.40
2010,07,07,17,15,31.40
2010,07,07,17,16,31.50
2010,07,07,17,17,31.60
2010,07,07,17,18,31.60
2010,07,07,17,19,31.50